Weather History for Volk, WI

Change the Weather History Date:

Saturday, July 12, 2014

  Actual Average Record
Temperature  
Mean Temperature 66 °F -  
Max Temperature 78 °F 78 °F 91 °F (2005)
Min Temperature 61 °F 63 °F 45 °F (2007)
Cooling Degree Days 1    
Growing Degree Days 16 (Base 50)    
Moisture  
Dew Point 64 °F    
Average Humidity 99    
Maximum Humidity 100    
Minimum Humidity 85    
Precipitation  
Precipitation 0.02 in - - ()
Sea Level Pressure  
Sea Level Pressure 29.95 in    
Wind  
Wind Speed 4 mph (WNW)    
Max Wind Speed 12 mph    
Max Gust Speed -    
Visibility 9 miles    
Events Rain    
Averages and records for this station are not official NWS values.
T = Trace of Precipitation, MM = Missing Value Source: NWS Daily Summary

Daily Weather History Graph

Daily Weather History Graph

Search for Another Location

Airport:

Trip Planner

Search our weather history database for the weather conditions in past years. The results will help you decide how hot, cold, wet, or windy it might be!

Date:

Astronomy

Jul. 12, 2014 Rise Set
Actual Time 5:29 AM CDT 8:43 PM CDT
Civil Twilight 4:54 AM CDT 9:18 PM CDT
Nautical Twilight 4:09 AM CDT 10:03 PM CDT
Astronomical Twilight 3:13 AM CDT 10:58 PM CDT
Moon 8:41 PM CDT (7/12) 5:52 AM CDT (7/12)
Length of Visible Light 16h 23m
Length of Day
15h 13m
Full, 100% of the Moon is Illuminated
Jul 12
Full
Jul 18
Last Quarter
Jul 26
New
Aug 3
First Quarter
Aug 10
Full

Hourly Weather History & Observations

Time (CDT) Temp. Dew Point Humidity Pressure Visibility Wind Dir Wind Speed Gust Speed Precip Events Conditions
12:58 AM 69.8 °F 65.1 °F 85% 30.05 in 10.0 mi South 3.5 mph - N/A   Scattered Clouds
1:58 AM 70.0 °F 65.3 °F 85% 30.03 in 10.0 mi South 10.4 mph - N/A   Scattered Clouds
2:58 AM 69.6 °F 65.8 °F 88% 30.02 in 10.0 mi Calm Calm - N/A   Partly Cloudy
3:33 AM 64.4 °F 64.4 °F 100% 30.01 in 8.0 mi NNE 1.2 mph - N/A   Scattered Clouds
3:43 AM 64.4 °F 64.4 °F 100% 30.01 in 10.0 mi NE 1.2 mph - N/A   Scattered Clouds
3:58 AM 64.0 °F 64.0 °F 100% 30.01 in 10.0 mi SE 1.2 mph - N/A   Scattered Clouds
4:58 AM 64.4 °F 64.4 °F 100% 30.02 in 10.0 mi Calm Calm - N/A   Mostly Cloudy
5:58 AM 65.3 °F 65.3 °F 100% 30.03 in 10.0 mi ESE 3.5 mph - N/A   Overcast
6:58 AM 67.1 °F 67.1 °F 100% 30.02 in 10.0 mi SE 3.5 mph - N/A   Scattered Clouds
6:13 PM 68.0 °F 68.0 °F 100% 29.95 in 1.8 mi WNW 9.2 mph - N/A Rain Heavy Rain
6:18 PM 66.2 °F 66.2 °F 100% 29.94 in 1.2 mi NW 11.5 mph - N/A Rain Heavy Rain
6:23 PM 66.2 °F 66.2 °F 100% 29.94 in 1.2 mi NW 11.5 mph - N/A Rain Heavy Rain
6:28 PM 66.2 °F 66.2 °F 100% 29.94 in 1.2 mi NW 9.2 mph - N/A Rain Heavy Rain
7:58 PM 65.1 °F 65.1 °F 100% 29.92 in 10.0 mi NNW 3.5 mph - 0.01 in   Light Drizzle
8:08 PM 64.4 °F 64.4 °F 100% 29.91 in 10.0 mi Calm Calm - N/A   Clear
8:47 PM 64.4 °F 64.4 °F 100% 29.89 in 10.0 mi ESE 3.5 mph - N/A   Light Drizzle
8:48 PM 64.4 °F 64.4 °F 100% 29.88 in 10.0 mi ESE 4.6 mph - N/A   Partly Cloudy
8:58 PM 64.8 °F 64.8 °F 100% 29.89 in 10.0 mi NNE 3.5 mph - 0.01 in   Partly Cloudy
9:00 PM 64.4 °F 64.4 °F 100% 29.89 in 10.0 mi NNE 4.6 mph - N/A   Scattered Clouds
9:31 PM 62.6 °F 62.6 °F 100% 29.90 in 9.0 mi West 3.5 mph - N/A   Scattered Clouds
9:36 PM 62.6 °F 62.6 °F 100% 29.91 in 10.0 mi WSW 3.5 mph - N/A   Mostly Cloudy
9:58 PM 62.6 °F 62.6 °F 100% 29.94 in 10.0 mi West 5.8 mph - N/A   Mostly Cloudy
10:08 PM 62.6 °F 62.6 °F 100% 29.94 in 10.0 mi West 8.1 mph - N/A   Mostly Cloudy
10:33 PM 62.6 °F 62.6 °F 100% 29.93 in 10.0 mi West 4.6 mph - N/A   Overcast
10:48 PM 62.6 °F 62.6 °F 100% 29.92 in 10.0 mi West 4.6 mph - N/A   Mostly Cloudy
10:58 PM 63.3 °F 63.3 °F 100% 29.92 in 10.0 mi West 4.6 mph - N/A   Mostly Cloudy
11:03 PM 64.4 °F 64.4 °F 100% 29.92 in 10.0 mi West 5.8 mph - N/A   Mostly Cloudy
11:18 PM 62.6 °F 62.6 °F 100% 29.92 in 10.0 mi West 5.8 mph - N/A   Scattered Clouds
11:58 PM 61.0 °F 61.0 °F 100% 29.92 in 10.0 mi West 6.9 mph - N/A   Clear